Date String (YYYY-MM-DD hh:mm:ss) UTC,Instrument flags,Ambient pressure (hPa),Sample flow (lpm),Bypass flow (lpm),Sample temperature (°C),Ambient temperature (°C),ASC tube jacket temperature (°C),LED temperature (°C),Box temperature (°C),Sample RH (%),Span deviation,Mass concentration (μg/m³),Mass concentration (μg/m³),Mass concentration (μg/m³)
DateTimeUTC,F1_M11,P_M11,Q1_M11,Q2_M11,T1_M11,T2_M11,T3_M11,T4_M11,T5_M11,U1_M11,ZSPAN_M11,X0_M11,X2_M11,X1_M11
2022-02-23 05:00:00,,0830.0,5.02,0.00,22.2,22.1,00.0,31.2,23.9,04.2,0000.0,0008.43,0004.05,0003.57
2022-02-23 05:01:00,,0830.0,5.00,0.00,22.3,22.9,00.0,31.3,24.1,04.2,0000.0,0008.48,0004.04,0003.56
2022-02-23 05:02:00,,0830.1,4.99,0.00,22.4,22.9,00.0,31.3,24.2,04.2,0000.0,0008.55,0004.05,0003.56
2022-02-23 05:03:00,,0830.1,4.99,0.00,22.4,22.3,00.0,31.3,24.1,04.2,0000.0,0009.19,0004.05,0003.55
2022-02-23 05:04:00,,0830.0,5.00,0.00,22.3,21.8,00.0,31.3,24.0,04.2,0000.0,0009.11,0004.03,0003.55
2022-02-23 05:05:00,,0830.1,5.00,0.00,22.2,21.4,00.0,31.2,23.8,04.2,0000.4,0008.82,0004.04,0003.55
2022-02-23 05:06:00,,0830.1,5.01,0.00,22.2,21.0,00.0,31.2,23.7,04.3,0000.0,0008.81,0004.04,0003.55
2022-02-23 05:07:00,,0830.0,5.00,0.00,22.1,20.7,00.0,31.2,23.5,04.3,0000.0,0008.68,0004.00,0003.55
2022-02-23 05:08:00,,0830.1,4.99,0.00,22.0,20.6,00.0,31.1,23.4,04.3,0001.1,0008.70,0004.00,0003.56
2022-02-23 05:09:00,,0830.0,5.01,0.00,22.0,21.5,00.0,31.1,23.6,04.3,0000.0,0008.68,0003.98,0003.56
2022-02-23 05:10:00,,0830.0,5.00,0.00,22.2,22.4,00.0,31.2,23.9,04.2,0000.0,0008.59,0003.98,0003.57
2022-02-23 05:11:00,,0830.0,5.01,0.00,22.3,23.0,00.0,31.2,24.2,04.2,0000.0,0008.28,0004.00,0003.58
2022-02-23 05:12:00,,0830.0,5.00,0.00,22.3,22.7,00.0,31.2,24.2,04.2,0000.0,0008.07,0003.97,0003.59
2022-02-23 05:13:00,,0830.0,4.99,0.00,22.3,22.1,00.0,31.2,24.0,04.2,0000.0,0007.73,0003.94,0003.59
2022-02-23 05:14:00,,0830.0,5.00,0.00,22.2,21.6,00.0,31.2,23.8,04.2,0000.0,0006.85,0003.94,0003.59
2022-02-23 05:15:00,,0830.0,5.01,0.00,22.1,21.1,00.0,31.2,23.7,04.2,0000.0,0006.82,0003.95,0003.60
2022-02-23 05:16:00,,0830.1,5.01,0.00,22.0,20.8,00.0,31.1,23.6,04.2,0000.0,0006.69,0003.96,0003.61
2022-02-23 05:17:00,,0830.1,4.99,0.00,22.0,20.6,00.0,31.1,23.4,04.2,0000.0,0006.80,0003.98,0003.60
2022-02-23 05:18:00,,0830.1,5.00,0.00,21.9,21.0,00.0,31.1,23.4,04.2,0000.0,0006.84,0003.99,0003.61
2022-02-23 05:19:00,,0830.1,5.01,0.00,22.0,21.9,00.0,31.1,23.7,04.2,0000.0,0006.87,0003.99,0003.61
2022-02-23 05:20:00,,0830.1,5.01,0.00,22.2,22.8,00.0,31.2,24.0,04.2,0000.0,0006.47,0003.99,0003.61
2022-02-23 05:21:00,,0830.1,4.98,0.00,22.3,23.0,00.0,31.2,24.2,04.2,0000.0,0006.35,0003.99,0003.62
2022-02-23 05:22:00,,0830.1,5.00,0.00,22.3,22.6,00.0,31.2,24.2,04.1,0000.0,0006.25,0003.99,0003.63
2022-02-23 05:23:00,,0830.1,4.99,0.00,22.3,22.1,00.0,31.2,24.1,04.1,0000.0,0006.39,0004.00,0003.63
2022-02-23 05:24:00,,0830.1,5.01,0.00,22.3,21.8,00.0,31.2,24.0,04.2,0000.0,0006.41,0004.01,0003.64
2022-02-23 05:25:00,,0830.1,5.00,0.00,22.2,21.4,00.0,31.1,23.9,04.2,0000.0,0006.44,0004.02,0003.65
2022-02-23 05:26:00,,0830.1,5.00,0.00,22.1,21.2,00.0,31.1,23.8,04.2,0000.0,0006.63,0004.06,0003.66
2022-02-23 05:27:00,,0830.0,4.99,0.00,22.1,21.0,00.0,31.1,23.7,04.2,0000.0,0006.59,0004.05,0003.66
2022-02-23 05:28:00,,0830.0,5.00,0.00,22.0,20.9,00.0,31.1,23.6,04.2,0000.0,0006.52,0004.04,0003.66
2022-02-23 05:29:00,,0830.1,5.00,0.00,22.1,21.6,00.0,31.1,23.7,04.2,0000.0,0006.37,0004.01,0003.66
2022-02-23 05:30:00,,0830.1,5.01,0.00,22.2,22.4,00.0,31.1,24.0,04.2,0000.0,0006.29,0004.00,0003.64
2022-02-23 05:31:00,,0830.1,5.00,0.00,22.3,22.9,00.0,31.2,24.1,04.2,0000.0,0006.50,0003.99,0003.63
2022-02-23 05:32:00,,0830.1,4.99,0.00,22.3,22.4,00.0,31.2,24.1,04.2,0000.0,0006.90,0003.98,0003.62
2022-02-23 05:33:00,,0830.1,5.01,0.00,22.3,21.9,00.0,31.2,24.0,04.2,0000.0,0006.77,0003.95,0003.60
2022-02-23 05:34:00,,0830.1,5.00,0.00,22.2,21.5,00.0,31.1,23.8,04.2,0000.0,0006.57,0003.92,0003.58
2022-02-23 05:35:00,,0830.0,4.99,0.00,22.1,21.1,00.0,31.1,23.7,04.2,0000.0,0006.79,0003.96,0003.58
2022-02-23 05:36:00,,0830.0,5.00,0.00,22.0,20.8,00.0,31.1,23.5,04.2,0000.0,0006.81,0003.95,0003.57
2022-02-23 05:37:00,,0830.0,4.99,0.00,21.9,20.5,00.0,31.1,23.4,04.2,0000.0,0006.73,0003.92,0003.55
2022-02-23 05:38:00,,0830.0,5.00,0.00,22.0,21.3,00.0,31.1,23.5,04.2,0000.0,0006.91,0003.95,0003.54
2022-02-23 05:39:00,,0830.1,4.99,0.00,22.1,22.2,00.0,31.1,23.8,04.2,0000.9,0006.93,0003.95,0003.54
2022-02-23 05:40:00,,0830.1,5.01,0.00,22.2,22.9,00.0,31.2,24.1,04.1,0000.5,0007.16,0003.99,0003.54
2022-02-23 05:41:00,,0830.1,5.01,0.00,22.3,22.9,00.0,31.2,24.2,04.1,0001.1,0007.10,0003.98,0003.54
2022-02-23 05:42:00,,0830.1,5.00,0.00,22.3,22.5,00.0,31.2,24.2,04.1,0001.8,0006.92,0003.98,0003.55
2022-02-23 05:43:00,,0830.1,5.00,0.00,22.3,22.0,00.0,31.2,24.0,04.1,0002.0,0006.53,0003.99,0003.55
2022-02-23 05:44:00,,0830.2,5.01,0.00,22.2,21.6,00.0,31.1,23.9,04.1,0001.7,0006.61,0003.97,0003.55
2022-02-23 05:45:00,,0830.1,4.99,0.00,22.2,21.2,00.0,31.1,23.8,04.1,0001.4,0007.05,0003.98,0003.55
2022-02-23 05:46:00,,0830.1,5.00,0.00,22.1,21.0,00.0,31.1,23.7,04.1,0000.9,0006.91,0003.95,0003.54
2022-02-23 05:47:00,,0830.0,4.99,0.00,22.0,20.8,00.0,31.1,23.6,04.1,0001.4,0006.95,0003.96,0003.55
2022-02-23 05:48:00,,0830.0,5.00,0.00,22.0,21.4,00.0,31.1,23.6,04.1,0001.4,0007.03,0003.95,0003.56
2022-02-23 05:49:00,,0830.1,4.99,0.00,22.1,22.2,00.0,31.1,23.9,04.1,0000.2,0006.96,0003.92,0003.55
2022-02-23 05:50:00,,0830.1,5.01,0.00,22.3,22.9,00.0,31.2,24.1,04.1,0000.0,0006.83,0003.89,0003.56
2022-02-23 05:51:00,,0830.0,5.00,0.00,22.4,23.0,00.0,31.2,24.3,04.0,0000.0,0006.85,0003.88,0003.56
2022-02-23 05:52:00,,0830.0,5.00,0.00,22.4,22.6,00.0,31.2,24.2,04.0,0000.0,0006.86,0003.88,0003.55
2022-02-23 05:53:00,,0830.1,4.98,0.00,22.3,22.1,00.0,31.2,24.1,04.0,0000.0,0006.98,0003.90,0003.56
2022-02-23 05:54:00,,0830.1,5.01,0.00,22.3,21.7,00.0,31.2,23.9,04.0,0000.0,0006.99,0003.90,0003.55
2022-02-23 05:55:00,,0830.0,5.00,0.00,22.2,21.4,00.0,31.2,23.9,04.0,0000.0,0007.00,0003.91,0003.57
2022-02-23 05:56:00,,0830.1,5.00,0.00,22.2,21.2,00.0,31.1,23.8,04.1,0000.0,0006.72,0003.94,0003.57
2022-02-23 05:57:00,,0830.1,5.01,0.00,22.1,20.9,00.0,31.1,23.7,04.1,0000.0,0006.90,0003.96,0003.56
2022-02-23 05:58:00,,0830.1,5.00,0.00,22.1,21.4,00.0,31.1,23.7,04.1,0000.0,0006.80,0003.95,0003.56
2022-02-23 05:59:00,,0830.1,5.00,0.00,22.2,22.2,00.0,31.2,24.0,04.0,0000.0,0006.91,0003.97,0003.55
